Location: Brockett
(40.8000°S, 175.4500°E)
Time: 04:34:25
(UTC+00:00)

Cosmos 1680 Rocket - Pass Details

Date: 04 August 2024
Orbit: 756 x 779 km, 74.1° (Epoch: 07 September)

Event Time Altitude Azimuth Distance (km) Brightness Sun altitude
Exits shadow 17:06:20 40° 348° (NNW) 1,124 4.2 -25.6°
Drops below altitude 10° 17:09:43 10° 5° (N) 2,290 6.0 -25.0°
Sets 17:12:04 0° 8° (N) 3,205 6.8 -24.5°
